Wind_Speed
38 38 38 38 37 37 37 37 36 35 35 35 35 34 33 33 33 33 32 32 32 32 32 31 31 29 29 29 28 28 27 27 26 25 25 24 23 23 22 21 21 21 20
41 41 41 41 40 40 40 40 39 39 38 38 38 37 37 36 36 36 35 35 35 34 34 33 33 32 31 30 30 30 29 29 28 27 27 26 26 25 25 24 23 23 22
44 44 43 43 42 42 43 43 42 42 41 41 41 41 41 40 39 39 38 38 38 38 37 36 35 35 34 33 32 31 31 30 30 29 29 28 28 28 27 26 26 25 24
46 46 47 47 46 45 45 46 45 45 44 43 43 43 43 42 42 42 42 41 40 40 40 39 38 38 37 36 35 34 33 33 31 31 30 30 29 29 28 27 27 27 26
48 48 48 48 48 49 48 48 48 48 47 46 46 45 45 44 43 44 44 43 43 43 42 42 41 40 40 39 37 36 36 36 35 33 32 31 31 30 29 29 29 28 28
50 50 50 50 50 50 50 50 50 50 50 49 48 48 47 47 46 45 45 46 46 45 45 45 44 42 42 41 40 38 38 38 37 36 34 33 33 32 32 31 31 30 30
51 51 50 49 50 51 51 51 51 52 52 52 51 50 50 49 49 49 48 48 48 47 47 47 46 45 44 43 42 41 40 39 39 38 37 36 34 34 34 33 32 32 31
52 51 52 51 51 51 52 52 52 51 52 53 53 52 52 52 52 52 52 51 50 50 49 48 48 48 47 45 45 44 43 42 41 40 39 38 37 37 36 35 35 34 33
52 52 53 53 53 52 52 53 54 52 53 54 54 54 54 53 53 53 53 53 52 52 51 51 50 50 50 48 47 46 45 45 44 42 42 41 39 39 38 38 37 37 36
52 52 53 53 53 54 53 53 54 53 54 55 55 56 56 56 56 54 54 54 54 54 53 53 53 52 52 52 50 48 48 47 46 45 44 43 42 41 41 40 39 38 38
52 53 53 54 55 55 55 55 54 54 54 54 55 55 56 55 56 56 55 54 55 55 55 55 55 55 54 53 53 52 50 49 48 47 46 46 45 44 43 42 41 40 40
52 53 54 55 55 55 55 55 55 55 55 55 55 55 55 55 55 56 55 55 55 55 56 57 56 56 56 55 54 54 53 52 50 50 49 47 47 46 46 44 43 43 42
52 52 53 54 55 55 55 56 55 55 55 55 55 55 55 56 55 56 56 56 56 55 56 57 57 57 57 56 56 56 56 55 54 52 52 50 49 48 47 45 45 44 43
51 52 52 53 54 54 55 55 55 55 55 55 55 55 54 55 55 55 56 56 57 56 56 57 57 57 58 58 56 57 57 57 56 55 54 53 51 50 49 48 47 46 45
51 52 51 51 52 53 53 54 54 54 54 54 55 55 55 55 55 55 56 56 57 56 56 56 57 57 58 59 58 57 58 58 58 57 56 56 54 53 52 51 50 49 48
50 50 50 50 50 51 51 51 52 52 53 53 53 54 55 55 55 55 56 57 57 58 57 57 57 58 59 60 59 58 58 59 59 58 57 56 56 56 55 54 53 52 51
49 49 50 50 50 51 50 50 50 50 50 51 51 52 53 54 55 55 55 56 56 57 58 57 58 58 58 59 59 59 59 59 59 59 59 58 57 57 56 55 54 53 53
48 48 49 49 50 51 51 51 51 50 50 49 49 50 51 52 54 54 54 55 56 56 57 57 57 58 58 59 59 59 59 59 59 59 59 59 59 58 57 56 55 54 53
47 48 48 48 48 50 51 51 50 50 50 49 49 49 50 51 51 52 54 55 56 57 57 58 57 58 58 59 60 60 60 59 59 59 59 59 59 59 58 57 56 55 54
46 46 47 47 48 49 50 50 50 49 49 49 49 49 50 50 50 51 52 53 55 56 57 58 57 58 58 59 60 61 61 60 59 59 59 59 58 58 58 57 56 56 56
45 45 46 46 47 47 48 49 49 49 49 49 49 50 51 51 50 50 51 52 54 55 56 56 56 57 57 58 59 61 62 61 60 59 59 59 58 58 58 57 57 57 56
44 45 45 45 45 46 46 48 49 50 50 50 49 49 50 50 51 51 51 51 52 53 54 55 55 55 55 56 58 60 62 62 62 60 60 59 59 58 58 58 58 57 56
43 43 43 43 43 44 45 46 48 49 50 50 50 49 49 49 50 51 51 51 52 53 54 54 54 53 53 54 56 58 60 62 61 61 61 60 60 59 58 58 58 58 58
41 41 41 41 42 42 43 44 45 47 48 48 48 48 48 48 49 50 50 51 52 52 52 53 53 52 53 53 54 55 57 59 60 60 60 60 59 60 60 59 59 59 59
39 39 40 40 41 41 41 42 43 44 44 45 45 46 46 46 46 47 48 49 50 51 51 52 52 53 53 53 53 54 55 57 57 57 57 57 58 58 59 58 58 58 59
37 37 38 39 39 40 40 41 41 41 42 43 43 44 45 44 44 45 45 46 47 47 48 49 50 51 51 52 52 52 53 53 54 55 56 56 56 57 57 57 57 58 59
Wind_Direction
258 258 257 257 258 259 259 259 259 258 257 257 256 256 256 255 255 254 252 250 249 249 248 247 247 249 251 252 253 254 255 255 256 257 258 258 257 258 259 259 259 259 261
258 259 259 259 259 259 260 259 259 259 258 257 256 256 256 255 254 253 252 251 249 248 247 248 248 248 250 252 253 254 255 255 256 257 257 258 257 257 257 258 259 259 260
259 259 259 260 260 260 260 261 260 259 259 257 256 255 255 255 254 253 252 251 250 249 248 248 248 249 250 252 253 253 254 255 255 256 256 257 257 258 257 257 258 259 259
260 260 260 260 260 261 261 261 260 259 258 257 256 255 254 254 253 252 251 251 250 249 248 247 248 249 250 252 253 253 254 255 255 256 255 256 257 258 258 257 257 258 259
261 261 262 261 261 261 261 261 260 259 258 257 256 255 254 254 253 252 252 251 251 250 249 248 248 249 250 251 253 253 253 254 254 256 256 257 257 258 258 258 258 259 260
262 262 262 261 261 260 260 260 260 259 258 257 256 255 254 253 253 252 251 252 251 250 249 248 247 248 249 250 252 252 252 253 254 255 257 257 258 258 259 259 259 260 260
262 261 262 261 261 261 261 261 260 259 258 257 256 255 254 254 253 253 252 251 251 251 249 248 248 248 248 249 250 251 252 253 253 254 256 257 258 257 257 258 260 260 260
263 262 262 261 261 261 261 261 261 260 258 258 257 256 255 254 254 254 253 252 251 251 250 250 248 248 248 248 249 250 250 252 253 254 254 255 256 257 258 259 260 260 260
263 262 263 262 261 260 260 261 260 261 259 258 258 257 256 254 255 254 253 252 251 251 250 250 249 248 248 248 249 250 250 251 252 253 254 254 254 255 256 258 259 260 260
265 263 263 263 262 261 261 261 261 261 260 259 258 258 258 257 256 253 252 252 252 251 250 250 249 248 248 248 248 248 249 249 251 252 253 253 254 255 256 257 258 259 259
266 265 264 263 263 262 261 261 261 260 261 260 259 258 258 258 256 254 252 251 251 250 249 249 248 248 248 249 248 248 249 249 249 250 252 253 254 254 256 257 258 259 259
267 266 264 263 262 262 261 261 261 261 260 260 259 258 258 258 257 255 253 250 250 250 250 249 248 248 248 248 248 247 248 248 249 250 251 253 253 254 255 257 258 259 259
268 266 266 263 261 260 260 260 260 260 260 260 259 258 258 257 256 255 254 251 249 249 249 249 249 248 247 248 248 247 247 248 249 249 250 252 254 253 254 256 257 259 259
267 266 266 264 261 259 259 259 260 259 260 259 259 259 258 258 256 255 254 253 251 249 249 249 249 249 248 248 248 247 247 248 249 249 250 251 253 254 254 254 256 257 258
268 266 265 264 261 259 259 259 259 259 259 259 259 259 258 257 257 256 255 254 252 250 249 249 249 249 249 248 248 248 248 248 248 249 250 251 252 253 253 254 254 255 257
268 266 265 263 261 260 259 259 259 259 259 259 259 258 257 257 257 256 255 254 253 252 250 249 249 249 249 248 249 249 248 248 248 249 249 251 251 252 252 253 254 254 256
268 267 265 263 262 261 259 259 259 259 259 259 258 258 258 257 257 257 256 255 253 252 251 250 249 249 249 249 248 248 248 248 248 249 249 249 250 251 252 253 253 254 255
269 267 266 265 263 261 260 260 259 259 259 259 259 258 259 258 257 257 256 255 254 253 253 251 249 248 248 248 248 247 247 248 248 248 249 250 251 252 252 253 253 254 255
270 268 266 265 264 262 261 260 259 258 258 259 259 259 259 259 258 257 256 255 255 254 253 252 250 249 248 247 247 247 247 247 247 248 249 250 251 251 252 252 253 254 255
270 269 267 265 264 263 261 259 258 257 257 258 259 259 259 258 258 257 256 256 255 255 254 253 252 250 249 248 248 248 247 247 247 248 248 249 251 251 252 252 253 254 255
270 269 268 266 265 264 261 260 258 258 257 257 259 259 258 258 258 258 257 256 256 254 254 253 253 252 250 249 249 248 247 247 247 247 248 249 250 251 252 252 252 253 255
272 270 269 267 266 264 262 261 260 259 258 257 258 258 258 259 258 258 257 256 255 254 253 253 253 253 252 252 250 249 248 248 248 248 248 248 249 250 251 252 252 252 254
274 272 270 268 266 264 263 263 261 261 260 259 259 258 258 258 257 257 256 256 256 255 254 254 253 253 253 253 252 251 250 249 249 248 247 248 249 250 251 251 252 253 254
276 274 271 270 268 265 264 264 263 262 261 260 258 258 258 257 257 257 256 256 256 255 255 255 254 253 253 252 252 251 250 249 248 248 248 249 249 250 251 251 252 253 255
278 276 274 271 269 267 266 266 265 263 261 259 257 256 257 258 257 256 257 257 256 255 255 254 253 253 253 252 251 250 250 249 249 248 248 249 249 250 250 251 253 253 254
279 277 275 273 271 269 267 267 266 264 262 260 258 256 256 257 256 256 257 257 256 255 255 254 253 253 252 252 251 251 250 250 249 248 249 249 249 249 250 251 252 254 255
Height
5767 5768 5769 5770 5772 5773 5775 5776 5777 5779 5781 5782 5784 5785 5787 5788 5790 5792 5794 5796 5798 5800 5802 5804 5806 5808 5809 5811 5813 5814 5816 5817 5819 5820 5821 5822 5823 5824 5825 5826 5826 5827 5828
5757 5758 5760 5761 5762 5764 5765 5766 5768 5770 5771 5773 5775 5776 5778 5780 5782 5783 5786 5788 5790 5792 5794 5796 5799 5800 5802 5804 5806 5808 5809 5810 5812 5813 5815 5816 5817 5818 5819 5820 5821 5822 5822
5746 5748 5749 5751 5752 5753 5755 5756 5757 5759 5761 5763 5765 5766 5768 5770 5772 5774 5777 5779 5781 5783 5786 5788 5790 5793 5794 5797 5799 5801 5802 5803 5805 5807 5808 5809 5811 5812 5813 5814 5815 5816 5817
5734 5736 5737 5739 5740 5741 5743 5745 5746 5748 5750 5752 5754 5756 5758 5760 5762 5764 5767 5769 5772 5774 5776 5779 5782 5784 5786 5788 5791 5793 5795 5796 5798 5799 5801 5802 5804 5805 5806 5808 5809 5810 5811
5721 5723 5724 5726 5728 5729 5731 5732 5734 5735 5738 5740 5742 5744 5746 5749 5751 5753 5756 5759 5761 5764 5766 5769 5772 5775 5777 5779 5782 5784 5786 5788 5790 5791 5793 5795 5797 5798 5799 5801 5802 5803 5804
5708 5709 5711 5712 5714 5716 5717 5719 5721 5723 5725 5727 5729 5732 5735 5737 5739 5742 5745 5747 5750 5753 5755 5758 5761 5764 5767 5770 5772 5775 5777 5779 5781 5783 5785 5787 5789 5790 5792 5793 5795 5796 5797
5694 5695 5697 5698 5700 5702 5703 5705 5707 5709 5711 5713 5716 5719 5722 5724 5727 5729 5732 5735 5738 5741 5744 5747 5750 5753 5757 5760 5762 5765 5768 5770 5772 5774 5776 5778 5780 5782 5784 5785 5787 5788 5790
5679 5681 5682 5684 5686 5687 5689 5691 5693 5695 5697 5699 5702 5705 5708 5712 5714 5716 5719 5722 5725 5728 5731 5735 5738 5742 5745 5748 5752 5754 5757 5760 5762 5764 5767 5769 5771 5773 5775 5777 5779 5780 5781
5665 5666 5667 5669 5671 5673 5675 5676 5678 5681 5683 5684 5686 5689 5693 5697 5700 5703 5705 5708 5711 5715 5718 5722 5725 5729 5733 5736 5740 5743 5746 5749 5752 5754 5757 5759 5761 5764 5766 5768 5770 5771 5773
5650 5651 5653 5654 5655 5657 5659 5661 5663 5665 5667 5670 5671 5673 5677 5680 5684 5689 5692 5694 5697 5701 5704 5708 5712 5716 5719 5723 5727 5730 5734 5737 5740 5743 5746 5749 5751 5754 5756 5758 5760 5762 5763
5635 5636 5637 5639 5640 5642 5643 5645 5647 5649 5651 5654 5656 5658 5661 5664 5667 5671 5677 5680 5682 5686 5690 5693 5697 5701 5706 5710 5714 5718 5721 5725 5728 5732 5734 5737 5740 5743 5745 5747 5750 5751 5753
5620 5620 5621 5623 5624 5626 5627 5629 5631 5633 5636 5638 5640 5643 5645 5648 5652 5655 5660 5664 5667 5671 5674 5678 5682 5687 5691 5695 5699 5703 5707 5712 5715 5719 5722 5725 5728 5731 5734 5736 5739 5741 5743
5605 5605 5606 5607 5608 5610 5611 5613 5615 5618 5620 5622 5624 5627 5630 5633 5636 5639 5643 5647 5652 5656 5659 5663 5667 5671 5676 5680 5684 5688 5693 5697 5702 5706 5709 5712 5716 5719 5722 5725 5727 5729 5731
5590 5590 5590 5591 5593 5594 5595 5597 5599 5602 5604 5606 5608 5611 5614 5617 5619 5622 5626 5630 5635 5640 5645 5649 5652 5656 5660 5665 5669 5673 5678 5683 5687 5691 5695 5699 5703 5706 5710 5713 5715 5717 5719
5575 5575 5575 5576 5577 5578 5580 5582 5584 5586 5588 5590 5592 5595 5598 5601 5603 5606 5609 5613 5618 5623 5630 5634 5637 5641 5644 5649 5653 5658 5662 5667 5672 5676 5680 5684 5688 5692 5696 5699 5702 5704 5707
5559 5560 5560 5561 5562 5564 5565 5567 5569 5571 5572 5575 5577 5579 5582 5584 5587 5590 5593 5597 5600 5606 5612 5618 5621 5625 5628 5633 5637 5642 5646 5651 5656 5661 5665 5669 5673 5677 5681 5685 5688 5691 5694
5545 5545 5546 5547 5548 5549 5550 5552 5554 5556 5558 5560 5562 5564 5566 5568 5571 5574 5577 5580 5584 5588 5594 5601 5604 5608 5612 5617 5621 5625 5630 5635 5640 5645 5650 5654 5658 5662 5666 5670 5673 5676 5680
5530 5531 5531 5532 5533 5534 5536 5537 5539 5541 5543 5545 5547 5549 5551 5553 5556 5559 5561 5564 5568 5572 5576 5582 5587 5592 5596 5600 5605 5609 5614 5619 5624 5629 5634 5638 5642 5647 5651 5655 5658 5662 5666
5516 5516 5517 5518 5519 5520 5521 5522 5524 5526 5528 5531 5533 5535 5537 5538 5541 5543 5546 5549 5552 5555 5559 5564 5570 5574 5579 5583 5588 5593 5598 5603 5608 5613 5618 5622 5626 5631 5635 5639 5643 5647 5651
5503 5503 5503 5503 5504 5505 5506 5507 5509 5511 5514 5516 5518 5520 5522 5524 5526 5528 5531 5533 5536 5539 5543 5547 5553 5557 5562 5566 5571 5576 5582 5587 5592 5597 5601 5606 5610 5615 5619 5624 5629 5632 5636
5489 5489 5489 5489 5489 5490 5491 5492 5494 5497 5499 5501 5503 5505 5507 5509 5511 5513 5515 5518 5520 5523 5527 5531 5536 5540 5546 5550 5555 5559 5564 5570 5575 5580 5585 5590 5596 5600 5604 5608 5612 5616 5620
5476 5475 5475 5475 5475 5476 5476 5477 5479 5481 5483 5486 5488 5490 5492 5494 5496 5498 5500 5503 5505 5508 5512 5515 5520 5524 5530 5534 5537 5541 5546 5552 5560 5567 5569 5574 5578 5583 5588 5592 5596 5600 5604
5463 5462 5462 5461 5461 5461 5462 5463 5463 5465 5468 5470 5472 5474 5477 5479 5480 5483 5485 5487 5490 5492 5496 5500 5504 5509 5513 5518 5521 5526 5530 5534 5542 5547 5551 5557 5562 5567 5572 5576 5580 5583 5587
5450 5449 5449 5448 5448 5448 5448 5449 5449 5450 5453 5454 5456 5459 5461 5463 5465 5467 5469 5471 5474 5477 5481 5484 5489 5494 5496 5500 5504 5508 5512 5517 5523 5529 5534 5541 5546 5551 5555 5559 5563 5567 5571
5438 5437 5436 5436 5436 5436 5435 5435 5435 5436 5438 5440 5442 5443 5445 5448 5450 5452 5454 5457 5459 5462 5465 5468 5472 5476 5480 5484 5488 5492 5496 5501 5507 5514 5518 5524 5530 5534 5538 5543 5547 5551 5554
5427 5425 5424 5423 5423 5423 5423 5422 5422 5423 5425 5426 5428 5430 5432 5433 5435 5436 5438 5441 5444 5447 5450 5453 5456 5460 5464 5468 5472 5476 5481 5486 5491 5498 5503 5507 5513 5516 5522 5527 5531 5534 5537